When you browse on this site, cookies collect data to enhance your experience and personalize the content and advertising you see.
Visit our Privacy Policy to learn more. By continuing to use the site, you agree to this use of cookies and data.
  • In Spain
  • List of Countries
  • For 7 days
  • Water Temperature
  • Weather Map
  • Weather Widgets
  • user-avatar
    Login

    Hourly Weather Turin

    Today, 20 September, Friday

    Time Temperature Precipitation Wind Pressure Humidity
    00:00 +19°C° 0 mm 1 mps 744 mmHg 69%
    01:00 +19°C° 0 mm 1 mps 745 mmHg 67%
    02:00 +18°C° 0 mm 1 mps 745 mmHg 68%
    03:00 +18°C° 0 mm 1 mps 744 mmHg 68%
    04:00 +18°C° 0 mm 1 mps 744 mmHg 68%
    05:00 +18°C° 0 mm 1 mps 744 mmHg 69%
    06:00 +16°C° 0 mm 1 mps 744 mmHg 70%
    07:00 +16°C° 0 mm 1 mps 744 mmHg 71%
    08:00 +18°C° 0 mm 1 mps 744 mmHg 68%
    09:00 +19°C° 0 mm 1 mps 745 mmHg 65%
    10:00 +18°C° 0 mm 2 mps 745 mmHg 62%
    11:00 +19°C° 0 mm 2 mps 745 mmHg 60%
    12:00 +20°C° 0 mm 2 mps 744 mmHg 57%
    13:00 +21°C° 0 mm 2 mps 744 mmHg 54%
    14:00 +22°C° 0 mm 1 mps 744 mmHg 55%
    15:00 +22°C° 0 mm 1 mps 744 mmHg 55%
    16:00 +22°C° 0 mm 1 mps 743 mmHg 55%
    17:00 +21°C° 0 mm 1 mps 743 mmHg 61%
    18:00 +19°C° 0 mm 1 mps 743 mmHg 66%
    19:00 +18°C° 0 mm 1 mps 743 mmHg 71%
    20:00 +18°C° 0 mm 1 mps 744 mmHg 73%
    21:00 +15°C° 0 mm 0 mps 744 mmHg 75%
    22:00 +15°C° 0 mm 0 mps 744 mmHg 77%
    23:00 +14°C° 0 mm 0 mps 744 mmHg 78%

    Tomorrow, 21 September, Saturday

    Time Temperature Precipitation Wind Pressure Humidity
    00:00 +14°C° 0 mm 0 mps 744 mmHg 79%
    01:00 +14°C° 0 mm 0 mps 744 mmHg 79%
    02:00 +14°C° 0 mm 0 mps 744 mmHg 79%
    03:00 +14°C° 0 mm 0 mps 744 mmHg 79%
    04:00 +14°C° 0 mm 0 mps 744 mmHg 79%
    05:00 +14°C° 0 mm 0 mps 744 mmHg 78%
    06:00 +14°C° 0 mm 0 mps 743 mmHg 78%
    07:00 +14°C° 0 mm 0 mps 743 mmHg 78%
    08:00 +15°C° 0 mm 0 mps 743 mmHg 73%
    09:00 +16°C° 0 mm 0 mps 743 mmHg 68%
    10:00 +20°C° 0 mm 1 mps 744 mmHg 64%
    11:00 +20°C° 0 mm 1 mps 743 mmHg 61%
    12:00 +21°C° 0 mm 1 mps 743 mmHg 59%
    13:00 +22°C° 0 mm 1 mps 743 mmHg 56%
    14:00 +22°C° 0 mm 1 mps 742 mmHg 57%
    15:00 +22°C° 0 mm 1 mps 742 mmHg 57%
    16:00 +22°C° 0 mm 1 mps 741 mmHg 57%
    17:00 +21°C° 0 mm 1 mps 741 mmHg 61%
    18:00 +20°C° 0 mm 1 mps 742 mmHg 64%
    19:00 +19°C° 0 mm 1 mps 742 mmHg 68%
    20:00 +19°C° 0.1 mm 1 mps 742 mmHg 69%
    21:00 +18°C° 0.1 mm 1 mps 742 mmHg 71%
    22:00 +18°C° 0.1 mm 1 mps 742 mmHg 73%
    23:00 +16°C° 0.5 mm 0 mps 742 mmHg 78%

    Day after tomorrow, 22 September, Sunday

    Time Temperature Precipitation Wind Pressure Humidity
    00:00 +15°C° 0.5 mm 0 mps 741 mmHg 84%
    01:00 +15°C° 0.5 mm 0 mps 741 mmHg 89%
    02:00 +15°C° 0 mm 0 mps 741 mmHg 88%
    03:00 +15°C° 0 mm 0 mps 741 mmHg 88%
    04:00 +14°C° 0 mm 0 mps 740 mmHg 87%
    05:00 +14°C° 0 mm 0 mps 740 mmHg 87%
    06:00 +15°C° 0 mm 0 mps 740 mmHg 86%
    07:00 +15°C° 0 mm 0 mps 740 mmHg 86%
    08:00 +16°C° 0 mm 0 mps 740 mmHg 81%
    09:00 +17°C° 0 mm 0 mps 740 mmHg 76%
    10:00 +20°C° 0 mm 1 mps 740 mmHg 72%
    11:00 +20°C° 0 mm 1 mps 739 mmHg 69%
    12:00 +21°C° 0 mm 1 mps 739 mmHg 66%
    13:00 +21°C° 0 mm 1 mps 739 mmHg 63%
    14:00 +21°C° 0 mm 1 mps 738 mmHg 65%
    15:00 +20°C° 0 mm 1 mps 738 mmHg 68%
    16:00 +20°C° 0 mm 1 mps 737 mmHg 70%
    17:00 +19°C° 0.3 mm 1 mps 737 mmHg 76%
    18:00 +18°C° 0.3 mm 1 mps 737 mmHg 82%
    19:00 +16°C° 0.3 mm 1 mps 737 mmHg 88%
    20:00 +15°C° 0 mm 0 mps 737 mmHg 89%
    21:00 +15°C° 0 mm 0 mps 738 mmHg 89%
    22:00 +15°C° 0 mm 0 mps 738 mmHg 90%
    23:00 +15°C° 0.2 mm 0 mps 738 mmHg 90%

    23 September, Monday

    Time Temperature Precipitation Wind Pressure Humidity
    00:00 +15°C° 0.2 mm 0 mps 738 mmHg 91%
    01:00 +15°C° 0.2 mm 0 mps 738 mmHg 91%
    02:00 +14°C° 0.1 mm 0 mps 737 mmHg 91%
    03:00 +14°C° 0.1 mm 0 mps 737 mmHg 91%
    04:00 +14°C° 0.1 mm 0 mps 737 mmHg 90%
    05:00 +15°C° 0 mm 1 mps 736 mmHg 90%
    06:00 +15°C° 0 mm 1 mps 736 mmHg 89%
    07:00 +14°C° 0 mm 1 mps 736 mmHg 89%
    08:00 +16°C° 0 mm 1 mps 736 mmHg 83%
    09:00 +19°C° 0 mm 1 mps 737 mmHg 77%
    10:00 +20°C° 0 mm 1 mps 737 mmHg 71%
    11:00 +22°C° 0 mm 1 mps 737 mmHg 66%
    12:00 +23°C° 0 mm 1 mps 737 mmHg 60%
    13:00 +24°C° 0 mm 1 mps 736 mmHg 55%
    14:00 +24°C° 0 mm 1 mps 736 mmHg 53%
    15:00 +24°C° 0 mm 1 mps 736 mmHg 52%
    16:00 +24°C° 0 mm 1 mps 735 mmHg 50%
    17:00 +23°C° 0 mm 1 mps 736 mmHg 54%
    18:00 +21°C° 0 mm 1 mps 736 mmHg 59%
    19:00 +18°C° 0 mm 2 mps 736 mmHg 64%
    20:00 +17°C° 0 mm 2 mps 737 mmHg 63%
    21:00 +17°C° 0 mm 2 mps 737 mmHg 62%
    22:00 +16°C° 0 mm 2 mps 738 mmHg 61%
    23:00 +16°C° 0 mm 1 mps 738 mmHg 60%

    24 September, Tuesday

    Time Temperature Precipitation Wind Pressure Humidity
    00:00 +15°C° 0 mm 1 mps 738 mmHg 59%
    01:00 +15°C° 0 mm 1 mps 738 mmHg 57%
    02:00 +15°C° 0 mm 1 mps 738 mmHg 56%
    03:00 +14°C° 0 mm 1 mps 738 mmHg 55%
    04:00 +14°C° 0 mm 1 mps 738 mmHg 55%
    05:00 +14°C° 0 mm 1 mps 738 mmHg 55%
    06:00 +14°C° 0 mm 1 mps 738 mmHg 55%
    07:00 +13°C° 0 mm 0 mps 738 mmHg 55%
    08:00 +15°C° 0 mm 0 mps 738 mmHg 52%
    09:00 +17°C° 0 mm 0 mps 738 mmHg 49%
    10:00 +19°C° 0 mm 0 mps 739 mmHg 46%
    11:00 +22°C° 0 mm 1 mps 738 mmHg 45%
    12:00 +23°C° 0 mm 1 mps 738 mmHg 44%
    13:00 +24°C° 0 mm 1 mps 738 mmHg 43%
    14:00 +24°C° 0 mm 1 mps 738 mmHg 45%
    15:00 +24°C° 0 mm 1 mps 738 mmHg 46%
    16:00 +24°C° 0 mm 1 mps 738 mmHg 47%
    17:00 +22°C° 0 mm 1 mps 738 mmHg 52%
    18:00 +21°C° 0 mm 1 mps 738 mmHg 56%
    19:00 +19°C° 0 mm 1 mps 738 mmHg 61%
    20:00 +19°C° 0 mm 1 mps 738 mmHg 62%
    21:00 +18°C° 0 mm 1 mps 738 mmHg 63%
    22:00 +16°C° 0 mm 0 mps 739 mmHg 63%
    23:00 +16°C° 0 mm 0 mps 738 mmHg 65%

    25 September, Wednesday

    Time Temperature Precipitation Wind Pressure Humidity
    00:00 +15°C° 0 mm 0 mps 738 mmHg 67%
    01:00 +15°C° 0 mm 0 mps 738 mmHg 68%
    02:00 +15°C° 0 mm 0 mps 737 mmHg 69%
    03:00 +15°C° 0 mm 0 mps 737 mmHg 71%
    04:00 +14°C° 0 mm 0 mps 737 mmHg 72%
    05:00 +14°C° 0 mm 0 mps 737 mmHg 72%
    06:00 +15°C° 0 mm 0 mps 736 mmHg 72%
    07:00 +15°C° 0 mm 0 mps 736 mmHg 72%
    08:00 +16°C° 0 mm 0 mps 737 mmHg 69%
    09:00 +17°C° 0 mm 0 mps 737 mmHg 66%
    10:00 +18°C° 0 mm 0 mps 737 mmHg 63%
    11:00 +20°C° 0 mm 0 mps 737 mmHg 59%
    12:00 +23°C° 0 mm 1 mps 737 mmHg 55%
    13:00 +25°C° 0 mm 1 mps 737 mmHg 51%
    14:00 +25°C° 0 mm 1 mps 736 mmHg 51%
    15:00 +25°C° 0 mm 1 mps 736 mmHg 52%
    16:00 +24°C° 0 mm 1 mps 735 mmHg 52%
    17:00 +23°C° 0 mm 1 mps 735 mmHg 58%
    18:00 +21°C° 0 mm 1 mps 736 mmHg 64%
    19:00 +20°C° 0 mm 1 mps 736 mmHg 70%
    20:00 +19°C° 0 mm 1 mps 736 mmHg 71%
    21:00 +19°C° 0 mm 1 mps 736 mmHg 73%
    22:00 +18°C° 0 mm 1 mps 736 mmHg 74%
    23:00 +18°C° 0 mm 1 mps 736 mmHg 74%
    Show more